Weather History for Laramie, WY

Change the Weather History Date:

Thursday, February 20, 2014

  Actual Average Record
Temperature  
Mean Temperature 19 °F 24 °F  
Max Temperature 24 °F 36 °F 59 °F (1958)
Min Temperature 13 °F 13 °F -13 °F (1984)
Degree Days  
Heating Degree Days 46 41  
Month to date heating degree days 830 845  
Since 1 July heating degree days 5691 5860  
Cooling Degree Days 0 0  
Month to date cooling degree days 0 0  
Year to date cooling degree days 0 0  
Moisture  
Dew Point 5 °F    
Average Humidity 56    
Maximum Humidity 73    
Minimum Humidity 39    
Precipitation  
Precipitation 0.00 in 0.02 in 0.35 in (1976)
Month to date precipitation 0.03 0.23  
Year to date precipitation 0.71 0.50  
Sea Level Pressure  
Sea Level Pressure 29.91 in    
Wind  
Wind Speed 31 mph (West)    
Max Wind Speed 47 mph    
Max Gust Speed 57 mph    
Visibility 10 miles    
Events      
T = Trace of Precipitation, MM = Missing Value Source: NWS Daily Summary

Daily Weather History Graph

Daily Weather History Graph

Search for Another Location

Airport:

Trip Planner

Search our weather history database for the weather conditions in past years. The results will help you decide how hot, cold, wet, or windy it might be!

Date:

Astronomy

Feb. 20, 2014 Rise Set
Actual Time 6:50 AM MST 5:42 PM MST
Civil Twilight 6:22 AM MST 6:10 PM MST
Nautical Twilight 5:50 AM MST 6:43 PM MST
Astronomical Twilight 5:18 AM MST 7:15 PM MST
Moon 11:44 PM MST (2/20) 9:31 AM MST (2/20)
Length of Visible Light 11h 48m
Length of Day
10h 52m
Waning Gibbous, 70% of the Moon is Illuminated
Feb 20
Waning Gibbous
Feb 22
Last Quarter
Mar 1
New
Mar 8
First Quarter
Mar 16
Full

Hourly Weather History & Observations

Time (MST) Temp. Windchill Dew Point Humidity Pressure Visibility Wind Dir Wind Speed Gust Speed Precip Events Conditions
12:53 AM 16.0 °F -2.1 °F 7.0 °F 68% 29.70 in 10.0 mi West 23.0 mph - N/A   Clear
1:53 AM 16.0 °F -2.5 °F 7.0 °F 68% 29.73 in 10.0 mi WNW 24.2 mph - N/A   Clear
2:53 AM 16.0 °F -1.3 °F 8.1 °F 71% 29.73 in 10.0 mi West 20.7 mph - N/A   Partly Cloudy
3:53 AM 16.0 °F -2.5 °F 6.1 °F 65% 29.81 in 10.0 mi WNW 24.2 mph - N/A   Scattered Clouds
4:53 AM 15.1 °F -2.0 °F 7.0 °F 70% 29.84 in 10.0 mi West 19.6 mph - N/A   Mostly Cloudy
5:53 AM 12.9 °F -7.6 °F 3.9 °F 67% 29.88 in 10.0 mi WNW 27.6 mph 32.2 mph N/A   Clear
6:53 AM 12.9 °F -6.1 °F 1.9 °F 62% 29.93 in 10.0 mi West 23.0 mph - N/A   Clear
7:53 AM 14.0 °F -6.2 °F 1.9 °F 59% 29.96 in 10.0 mi WNW 27.6 mph 32.2 mph N/A   Clear
8:53 AM 16.0 °F -5.0 °F 3.0 °F 57% 29.99 in 10.0 mi WNW 33.4 mph 40.3 mph N/A   Clear
9:53 AM 18.0 °F -2.6 °F 3.0 °F 52% 30.00 in 10.0 mi WNW 34.5 mph 41.4 mph N/A   Clear
10:53 AM 19.9 °F -0.1 °F 1.9 °F 46% 30.00 in 10.0 mi WNW 35.7 mph 46.0 mph N/A   Clear
11:53 AM 21.0 °F 1.4 °F -0.0 °F 40% 30.01 in 10.0 mi WNW 35.7 mph 44.9 mph N/A   Clear
12:53 PM 19.9 °F 1.8 °F 1.9 °F 46% 30.01 in 10.0 mi WNW 27.6 mph 38.0 mph N/A   Partly Cloudy
1:53 PM 19.9 °F 1.8 °F 1.9 °F 46% 30.00 in 10.0 mi WNW 27.6 mph 36.8 mph N/A   Scattered Clouds
2:53 PM 23.0 °F 3.0 °F 3.9 °F 44% 29.96 in 10.0 mi West 41.4 mph 50.6 mph N/A   Clear
3:53 PM 23.0 °F 2.4 °F 3.9 °F 44% 29.97 in 10.0 mi West 44.9 mph 56.4 mph N/A   Clear
4:53 PM 23.0 °F 4.1 °F 5.0 °F 46% 29.98 in 10.0 mi West 35.7 mph 43.7 mph N/A   Clear
5:53 PM 21.0 °F 2.4 °F 6.1 °F 53% 29.96 in 10.0 mi West 31.1 mph 46.0 mph N/A   Clear
6:53 PM 21.0 °F 0.9 °F 7.0 °F 55% 29.95 in 10.0 mi West 38.0 mph 46.0 mph N/A   Clear
7:53 PM 21.0 °F 1.9 °F 6.1 °F 53% 29.95 in 10.0 mi West 33.4 mph 43.7 mph N/A   Partly Cloudy
8:53 PM 23.0 °F 4.6 °F 3.9 °F 44% 29.91 in 10.0 mi West 33.4 mph 48.3 mph N/A   Clear
9:53 PM 24.1 °F 4.5 °F 5.0 °F 44% 29.89 in 10.0 mi West 41.4 mph 52.9 mph N/A   Overcast
10:53 PM 23.0 °F 4.9 °F 8.1 °F 53% 29.90 in 10.0 mi West 32.2 mph 40.3 mph N/A   Clear
11:53 PM 23.0 °F 5.1 °F 8.1 °F 53% 29.88 in 10.0 mi West 31.1 mph 39.1 mph N/A   Partly Cloudy